CW0962 Weather Reports


Display with metric or nautical units.
time (UTC)temp
F
wind
direction
speed
MPH
gust
MPH
rain 1hr
in
rain 24hr
in
rain mn
in
humidity
%
barometer
mb
20260504174011 70 192 8.0 24.0 0.00 0.00 0.00 29 1006.6
20260504173126 69 151 10.0 25.0 0.00 0.00 0.00 28 1006.9
20260504172504 69 136 9.0 22.0 0.00 0.00 0.00 30 1006.7
20260504172028 70 178 9.0 26.0 0.00 0.00 0.00 29 1007.0
20260504171510 70 210 9.0 26.0 0.00 0.00 0.00 29 1007.1
20260504171021 70 169 10.0 26.0 0.00 0.00 0.00 27 1007.1
20260504170507 69 190 9.0 26.0 0.00 0.00 0.00 27 1007.2
20260504151028 67 183 7.0 20.0 0.00 0.01 0.00 34 1008.2
20260504141026 65 221 6.0 15.0 0.00 0.01 0.00 39 1009.0
20260504140501 64 209 5.0 12.0 0.00 0.01 0.00 37 1009.0
20260504130511 60 190 4.0 12.0 0.00 0.01 0.00 43 1009.3
20260504100508 46 156 3.0 9.0 0.00 0.01 0.00 63 1009.5
20260504081501 45 189 2.0 4.0 0.00 0.03 0.00 64 1009.3
20260504080507 45 180 2.0 6.0 0.00 0.03 0.00 64 1009.2
20260504044505 40 195 2.0 9.0 0.00 0.04 0.00 68 1008.8
20260504043005 39 195 2.0 7.0 0.00 0.04 0.00 72 1009.0
20260504042022 38 206 1.0 6.0 0.00 0.04 0.00 75 1008.9
20260504041501 38 197 0.0 6.0 0.00 0.04 0.00 77 1008.9
20260504041009 38 235 0.0 0.0 0.00 0.04 0.00 77 1008.8
20260504040510 38 235 0.0 0.0 0.00 0.04 0.00 77 1008.7
20260504040007 38 235 0.0 0.0 0.00 0.04 0.00 77 1008.7
20260504035503 38 235 0.0 0.0 0.00 0.06 0.04 77 1008.7
20260504035007 38 235 0.0 0.0 0.00 0.06 0.04 76 1008.6
20260504034504 38 235 0.0 0.0 0.00 0.06 0.04 76 1008.7
20260504033519 38 235 0.0 0.0 0.00 0.06 0.04 76 1008.6
20260504033026 38 235 0.0 0.0 0.00 0.06 0.04 76 1008.6
20260504032510 38 235 0.0 0.0 0.00 0.06 0.04 75 1008.6
20260504032004 39 235 0.0 0.0 0.00 0.06 0.04 75 1008.6
20260504031520 39 235 0.0 0.0 0.00 0.06 0.04 73 1008.5
20260504031007 39 235 0.0 0.0 0.00 0.06 0.04 72 1008.5
20260504030502 39 236 0.0 0.0 0.00 0.06 0.04 74 1008.5
20260504030006 39 236 0.0 0.0 0.00 0.06 0.04 74 1008.5
20260504025504 39 236 0.0 0.0 0.00 0.09 0.04 74 1008.5
20260504025005 39 236 0.0 0.0 0.00 0.09 0.04 75 1008.4
20260504024520 39 236 0.0 0.0 0.00 0.09 0.04 75 1008.5
20260504024030 39 236 0.0 0.0 0.00 0.09 0.04 75 1008.5
20260504023505 39 236 0.0 1.0 0.00 0.09 0.04 75 1008.5
20260504023027 39 236 0.0 1.0 0.00 0.09 0.04 75 1008.4
20260504022009 39 236 0.0 1.0 0.00 0.09 0.04 73 1008.4
20260504021508 40 236 0.0 0.0 0.00 0.09 0.04 72 1008.3
20260504021028 40 236 0.0 0.0 0.00 0.09 0.04 70 1008.3
20260504020004 40 236 0.0 0.0 0.00 0.09 0.04 70 1008.2
20260504015509 40 236 0.0 0.0 0.00 0.10 0.04 69 1008.2
20260504015004 41 236 0.0 0.0 0.00 0.10 0.04 69 1008.2
20260504014520 41 236 0.0 0.0 0.00 0.10 0.04 69 1008.2
20260504014006 41 236 0.0 0.0 0.00 0.10 0.04 67 1008.2
20260504013507 42 236 0.0 0.0 0.00 0.10 0.04 67 1008.1
20260504013006 42 236 0.0 0.0 0.00 0.10 0.04 61 1008.0
20260504012519 43 236 0.0 0.0 0.00 0.10 0.04 62 1008.0
20260504012019 43 236 0.0 0.0 0.00 0.10 0.04 57 1008.0
20260504011510 43 236 0.0 0.0 0.00 0.10 0.04 59 1007.9
20260504011005 43 236 0.0 1.0 0.00 0.10 0.04 59 1007.8
20260504010525 44 236 0.0 4.0 0.00 0.10 0.04 58 1007.8
20260504010023 44 236 0.0 5.0 0.00 0.10 0.04 54 1007.7
20260504005505 44 236 0.0 5.0 0.00 0.18 0.04 55 1007.7
20260504004519 45 258 0.0 2.0 0.00 0.18 0.04 53 1007.5
20260504004011 46 258 0.0 2.0 0.00 0.18 0.04 50 1007.4
20260504003520 46 258 0.0 1.0 0.00 0.18 0.04 50 1007.2
20260504003041 46 258 1.0 5.0 0.00 0.18 0.04 50 1007.3
20260504002514 46 258 1.0 5.0 0.00 0.18 0.04 52 1007.2
20260504002005 47 272 0.0 2.0 0.00 0.18 0.04 51 1007.1
20260504001009 47 284 0.0 2.0 0.00 0.18 0.04 47 1007.0
20260504000011 48 281 1.0 6.0 0.00 0.18 0.04 47 1006.8
20260503235513 49 290 1.0 6.0 0.00 0.18 0.04 44 1006.8
20260503235007 49 275 2.0 6.0 0.00 0.18 0.04 45 1006.6
20260503234509 49 307 2.0 9.0 0.00 0.18 0.04 44 1006.6
20260503234022 49 330 1.0 9.0 0.00 0.18 0.04 45 1006.5
20260503233512 50 236 3.0 10.0 0.00 0.18 0.04 44 1006.4
20260503233013 50 257 2.0 10.0 0.00 0.18 0.04 43 1006.2
20260503232504 50 316 2.0 6.0 0.00 0.18 0.04 44 1006.2
20260503232007 51 242 2.0 6.0 0.00 0.18 0.04 41 1006.1
20260503231512 51 198 2.0 7.0 0.00 0.18 0.04 44 1005.9
20260503231008 52 263 2.0 9.0 0.00 0.18 0.04 41 1005.9
20260503230004 52 305 3.0 11.0 0.00 0.18 0.04 40 1005.7
20260503225522 52 274 3.0 11.0 0.00 0.18 0.04 40 1005.6
20260503225009 52 252 2.0 9.0 0.00 0.18 0.04 43 1005.6
20260503224502 52 254 3.0 9.0 0.00 0.18 0.04 40 1005.4
20260503224039 52 257 3.0 9.0 0.00 0.18 0.04 39 1005.3
20260503223511 53 283 3.0 9.0 0.00 0.18 0.04 40 1005.3
20260503223005 53 189 2.0 8.0 0.00 0.18 0.04 40 1005.2
20260503221459 53 319 3.0 10.0 0.00 0.18 0.04 38 1005.0
20260503221009 53 329 3.0 10.0 0.00 0.18 0.04 40 1004.9
20260503220008 54 279 1.0 6.0 0.00 0.18 0.04 43 1004.8
20260503215504 54 132 2.0 6.0 0.00 0.18 0.04 40 1004.6
20260503215002 54 283 2.0 6.0 0.00 0.18 0.04 43 1004.6
20260503214011 53 306 1.0 4.0 0.00 0.18 0.04 43 1004.5
20260503213518 53 61 2.0 9.0 0.00 0.18 0.04 41 1004.5
20260503213007 54 287 2.0 9.0 0.00 0.18 0.04 43 1004.4
20260503212503 54 304 2.0 7.0 0.00 0.18 0.04 43 1004.3
20260503212004 54 311 2.0 7.0 0.00 0.18 0.04 43 1004.2
20260503211518 54 274 3.0 10.0 0.00 0.18 0.04 44 1004.2
20260503211010 54 327 3.0 10.0 0.00 0.18 0.04 43 1004.2
20260503210505 54 37 3.0 9.0 0.00 0.18 0.04 43 1004.0
20260503210006 55 306 2.0 9.0 0.00 0.18 0.04 43 1004.0
20260503205511 56 211 3.0 9.0 0.00 0.18 0.04 41 1003.8
20260503204005 57 315 3.0 11.0 0.00 0.18 0.04 41 1003.6
20260503202510 55 275 3.0 9.0 0.00 0.18 0.04 42 1003.5
20260503202001 55 254 3.0 7.0 0.00 0.18 0.04 43 1003.5
20260503200506 57 355 3.0 7.0 0.00 0.18 0.04 46 1003.4
20260503200029 56 323 3.0 7.0 0.00 0.18 0.04 43 1003.4
20260503195005 55 279 2.0 7.0 0.00 0.18 0.04 49 1003.6
20260503194019 53 309 3.0 9.0 0.00 0.18 0.04 51 1003.6
20260503193536 53 294 3.0 9.0 0.00 0.18 0.04 50 1003.7
20260503193020 52 327 2.0 8.0 0.00 0.18 0.04 50 1003.6
20260503192504 52 282 2.0 9.0 0.00 0.18 0.04 50 1003.7
20260503192009 52 360 3.0 9.0 0.00 0.18 0.04 51 1003.7
20260503191507 52 327 3.0 6.0 0.00 0.18 0.04 52 1003.7
20260503191006 53 316 2.0 7.0 0.00 0.18 0.04 50 1003.8